K7ZQU-7 Weather Reports


Display with metric or nautical units.
time (UTC)temp
F
wind
direction
speed
MPH
gust
MPH
rain 1hr
in
rain 24hr
in
rain mn
in
humidity
%
barometer
mb
20260903205516 45 239 3.0 1.0 0.00 1.12 0.11 83 1008.2
20260903205016 44 288 1.0 8.0 0.00 1.12 0.11 84 1008.2
20260903204514 44 330 2.0 5.0 0.00 1.12 0.11 87 1008.1
20260903204015 44 274 2.0 2.0 0.00 1.12 0.11 85 1008.2
20260903203516 44 276 3.0 1.0 0.00 1.12 0.11 85 1008.2
20260903203017 44 203 3.0 1.0 0.00 1.12 0.11 85 1008.1
20260903202518 44 48 3.0 1.0 0.00 1.12 0.11 86 1008.3
20260903202016 44 224 2.0 2.0 0.00 1.12 0.11 85 1008.2
20260903201517 44 315 3.0 1.0 0.00 1.12 0.11 85 1008.3
20260903201017 44 263 0.0 3.0 0.00 1.12 0.11 87 1008.3
20260903200518 44 269 2.0 0.0 0.00 1.12 0.11 88 1008.3
20260903200019 44 217 4.0 1.0 0.00 1.12 0.11 86 1008.3
20260903195517 44 322 1.0 3.0 0.00 1.12 0.11 92 1008.2
20260903195018 43 159 2.0 0.0 0.00 1.12 0.11 91 1008.2
20260903194519 43 250 1.0 2.0 0.00 1.12 0.11 91 1008.3
20260903194020 42 259 3.0 2.0 0.00 1.12 0.11 92 1008.1
20260903193520 42 277 1.0 2.0 0.00 1.12 0.11 90 1008.2
20260903193018 42 249 3.0 3.0 0.00 1.12 0.11 90 1008.2
20260903192519 42 302 6.0 3.0 0.00 1.12 0.11 90 1008.2
20260903192020 42 295 1.0 3.0 0.00 1.12 0.11 93 1008.3
20260903191521 42 294 1.0 3.0 0.00 1.12 0.11 92 1008.3
20260903191022 42 335 2.0 2.0 0.00 1.12 0.11 92 1008.3
20260903190520 42 225 4.0 2.0 0.00 1.12 0.11 91 1008.3
20260903190021 42 217 6.0 7.0 0.00 1.12 0.11 93 1008.3
20260903185522 41 248 4.0 0.0 0.01 1.12 0.11 96 1008.3
20260903185023 41 239 0.0 0.0 0.01 1.12 0.11 96 1008.5
20260903184523 41 233 0.0 0.0 0.01 1.12 0.11 96 1008.5
20260903184022 40 315 0.0 0.0 0.01 1.12 0.11 96 1008.5
20260903183522 40 315 0.0 0.0 0.01 1.12 0.11 97 1008.6
20260903183023 40 338 0.0 0.0 0.01 1.12 0.11 97 1008.6
20260903182524 39 338 0.0 0.0 0.01 1.12 0.11 96 1008.6
20260903182025 39 338 0.0 0.0 0.01 1.12 0.11 96 1008.7
20260903181523 39 338 0.0 0.0 0.01 1.12 0.11 96 1008.7
20260903181023 39 318 0.0 0.0 0.01 1.12 0.11 96 1008.7
20260903180524 39 271 1.0 0.0 0.01 1.12 0.11 96 1008.7
20260903180025 39 350 0.0 0.0 0.01 1.12 0.11 96 1008.7
20260903175526 39 238 3.0 1.0 0.02 1.12 0.11 96 1008.6
20260903175024 39 284 0.0 0.0 0.02 1.12 0.11 96 1008.6
20260903174525 39 271 1.0 0.0 0.02 1.12 0.11 97 1008.5
20260903174026 39 238 0.0 0.0 0.02 1.12 0.11 97 1008.3
20260903173527 38 211 0.0 0.0 0.02 1.12 0.11 97 1008.3
20260903173028 38 211 0.0 0.0 0.02 1.12 0.11 97 1008.3
20260903172526 38 198 0.0 0.0 0.02 1.12 0.11 96 1008.5
20260903172026 38 215 0.0 0.0 0.02 1.12 0.11 96 1008.5
20260903171528 38 273 4.0 2.0 0.02 1.12 0.10 96 1008.6
20260903171028 38 233 1.0 0.0 0.02 1.12 0.10 97 1008.6
20260903170529 38 318 1.0 0.0 0.02 1.12 0.10 97 1008.5
20260903170027 38 228 1.0 3.0 0.02 1.12 0.10 96 1008.5
20260903165528 38 285 4.0 4.0 0.03 1.12 0.10 97 1008.5
20260903165029 38 89 2.0 0.0 0.03 1.12 0.10 97 1008.3
20260903164530 38 280 4.0 8.0 0.03 1.12 0.10 97 1008.3
20260903164031 38 255 1.0 0.0 0.03 1.12 0.10 97 1008.3
20260903163529 38 295 1.0 6.0 0.03 1.12 0.10 97 1008.3
20260903163030 38 249 4.0 0.0 0.03 1.12 0.10 97 1008.2
20260903162530 38 149 5.0 2.0 0.03 1.12 0.10 97 1008.3
20260903162031 38 294 0.0 0.0 0.03 1.12 0.09 97 1008.3
20260903161532 38 245 3.0 1.0 0.03 1.12 0.09 97 1008.5
20260903161121 38 273 4.0 2.0 0.03 1.12 0.09 97 1008.3
20260903161030 38 273 4.0 2.0 0.03 1.12 0.09 97 1008.3
20260903160531 38 281 2.0 3.0 0.03 1.12 0.09 97 1008.3
20260903160032 38 278 4.0 2.0 0.03 1.12 0.08 97 1008.3
20260903155532 38 283 0.0 0.0 0.03 1.12 0.08 97 1008.5
20260903155033 38 288 0.0 0.0 0.03 1.12 0.08 97 1008.2
20260903154531 38 285 0.0 0.0 0.03 1.12 0.07 97 1008.3
20260903154032 38 291 0.0 0.0 0.03 1.12 0.07 97 1008.3
20260903153533 38 249 0.0 0.0 0.03 1.12 0.07 97 1008.3
20260903153033 38 249 0.0 0.0 0.03 1.12 0.06 97 1008.3
20260903152534 38 249 1.0 0.0 0.03 1.12 0.06 97 1008.5
20260903152032 38 294 0.0 3.0 0.03 1.12 0.06 97 1008.5
20260903151533 38 278 0.0 0.0 0.03 1.12 0.06 97 1008.5
20260903151034 37 293 1.0 0.0 0.03 1.12 0.06 97 1008.5
20260903150534 37 266 0.0 0.0 0.03 1.12 0.05 97 1008.6
20260903150035 37 266 0.0 0.0 0.03 1.12 0.05 97 1008.5
20260903145533 37 281 1.0 0.0 0.00 1.12 0.05 97 1008.5
20260903145034 37 287 2.0 7.0 0.00 1.12 0.04 97 1008.3
20260903144534 37 243 0.0 0.0 0.00 1.12 0.04 97 1008.3
20260903144035 37 312 1.0 6.0 0.00 1.12 0.04 97 1008.3
20260903143536 37 307 4.0 2.0 0.00 1.12 0.04 97 1008.2
20260903143034 37 239 1.0 8.0 0.00 1.12 0.03 97 1008.2
20260903142535 37 281 1.0 4.0 0.00 1.12 0.03 96 1008.2
20260903142035 37 302 0.0 3.0 0.00 1.12 0.02 96 1008.2
20260903141536 37 276 0.0 0.0 0.00 1.12 0.02 96 1008.1
20260903141037 37 300 3.0 4.0 0.00 1.12 0.02 96 1008.1
20260903140535 37 167 0.0 0.0 0.00 1.12 0.02 96 1008.1
20260903140036 37 285 2.0 0.0 0.00 1.12 0.02 96 1008.1
20260903135536 37 277 0.0 0.0 0.02 1.12 0.02 96 1008.0
20260903135037 37 293 1.0 0.0 0.02 1.12 0.02 96 1007.9
20260903134538 37 17 2.0 0.0 0.02 1.12 0.02 96 1007.9
20260903134036 37 285 0.0 0.0 0.02 1.12 0.02 97 1007.9
20260903133537 37 311 4.0 2.0 0.02 1.12 0.02 97 1007.9
20260903133038 37 287 5.0 0.0 0.02 1.12 0.02 97 1007.7
20260903132539 37 222 3.0 0.0 0.02 1.12 0.02 97 1007.7
20260903132039 37 295 3.0 0.0 0.02 1.12 0.02 97 1007.6
20260903131537 37 270 5.0 3.0 0.02 1.12 0.02 97 1007.6
20260903130539 37 300 3.0 1.0 0.02 1.12 0.02 97 1007.5
20260903130040 37 322 2.0 2.0 0.02 1.12 0.02 97 1007.4
20260903125540 37 285 3.0 7.0 0.00 1.12 0.02 97 1007.6
20260903125038 37 264 4.0 2.0 0.00 1.12 0.02 97 1007.6
20260903124539 37 285 1.0 3.0 0.00 1.12 0.02 97 1007.7
20260903124040 37 307 5.0 2.0 0.00 1.12 0.02 97 1007.6
20260903123541 37 217 1.0 0.0 0.00 1.12 0.01 97 1007.6
20260903123041 37 332 4.0 2.0 0.00 1.12 0.00 97 1007.6
20260903122539 37 169 2.0 0.0 0.00 1.12 0.00 97 1007.7
20260903122040 37 238 3.0 0.0 0.00 1.12 0.00 97 1007.7
20260903121541 37 340 5.0 2.0 0.00 1.12 0.00 96 1007.7
20260903121042 37 329 7.0 2.0 0.00 1.12 0.00 96 1007.7
20260903120543 37 255 4.0 1.0 0.00 1.12 0.00 97 1007.7
20260903120041 37 281 6.0 1.0 0.00 1.12 0.00 97 1007.9
20260903115541 37 284 2.0 9.0 0.00 1.12 0.00 97 1007.9
20260903115042 37 293 1.0 5.0 0.00 1.12 0.00 97 1007.9
20260903114543 37 284 6.0 4.0 0.00 1.12 0.00 97 1008.0
20260903114044 37 318 3.0 4.0 0.00 1.12 0.00 97 1008.0
20260903113542 37 240 4.0 0.0 0.00 1.12 0.00 97 1008.1
20260903113043 37 305 2.0 3.0 0.00 1.12 0.00 97 1008.1
20260903112544 37 288 6.0 9.0 0.00 1.12 0.00 97 1008.0
20260903112044 37 300 4.0 2.0 0.00 1.12 0.00 97 1008.1
20260903111545 37 294 0.0 5.0 0.00 1.12 0.00 97 1008.0
20260903111043 37 205 1.0 4.0 0.00 1.12 0.00 97 1007.9
20260903110544 37 252 3.0 1.0 0.00 1.12 0.00 97 1008.1
20260903110045 37 267 2.0 7.0 0.00 1.12 0.00 97 1007.9
20260903105546 37 225 0.0 0.0 0.00 1.12 0.00 97 1008.0
20260903105046 37 271 0.0 0.0 0.00 1.12 0.00 97 1008.0
20260903104545 37 264 0.0 2.0 0.00 1.12 0.00 97 1008.0
20260903104045 37 208 1.0 0.0 0.00 1.12 0.00 97 1008.0
20260903103546 37 298 5.0 7.0 0.00 1.12 0.00 97 1008.0
20260903103047 37 298 2.0 2.0 0.00 1.12 0.00 97 1007.7
20260903102548 37 274 5.0 3.0 0.00 1.12 0.00 97 1007.9
20260903102046 37 280 3.0 5.0 0.00 1.12 0.00 97 1007.9
20260903101547 37 288 4.0 7.0 0.00 1.12 0.00 97 1008.0
20260903101048 37 271 6.0 2.0 0.00 1.12 0.00 97 1008.1
20260903100548 37 311 2.0 3.0 0.00 1.12 0.00 97 1008.0
20260903100049 37 285 1.0 0.0 0.00 1.12 0.00 97 1008.0
20260903095547 37 291 6.0 7.0 0.00 1.12 0.00 97 1008.0
20260903095048 37 291 3.0 3.0 0.00 1.12 0.00 97 1008.0
20260903094549 37 307 4.0 4.0 0.00 1.12 0.00 97 1008.0
20260903094050 37 285 1.0 4.0 0.00 1.12 0.00 97 1008.0
20260903093551 37 248 5.0 2.0 0.00 1.12 0.00 97 1008.0
20260903093049 37 245 4.0 1.0 0.00 1.12 0.00 97 1008.0
20260903092549 37 326 3.0 4.0 0.00 1.12 0.00 97 1008.0
20260903092050 37 287 6.0 0.0 0.00 1.12 0.00 97 1008.0
20260903091551 37 283 4.0 3.0 0.00 1.12 0.00 97 1008.0
20260903091052 38 246 0.0 1.0 0.00 1.12 0.00 97 1008.0
20260903090550 38 285 1.0 8.0 0.00 1.12 0.00 97 1008.1
20260903090051 38 301 4.0 5.0 0.00 1.12 0.00 97 1008.1
20260903085552 38 238 1.0 1.0 0.00 1.12 0.00 97 1008.0
20260903085052 38 307 2.0 0.0 0.00 1.12 0.00 97 1008.1
20260903084553 38 259 2.0 7.0 0.00 1.12 0.00 97 1008.2
20260903084051 38 283 3.0 0.0 0.00 1.12 0.00 97 1008.2
20260903083552 38 301 2.0 5.0 0.00 1.12 0.00 97 1008.1
20260903083053 38 245 3.0 5.0 0.00 1.12 0.00 97 1008.1
20260903082553 38 224 5.0 2.0 0.00 1.12 0.00 97 1008.1
20260903082054 38 238 4.0 2.0 0.00 1.12 0.00 97 1008.1
20260903081552 38 277 4.0 0.0 0.00 1.12 0.00 97 1008.1
20260903081053 38 267 5.0 3.0 0.00 1.12 0.00 97 1008.1
20260903080554 38 326 3.0 2.0 0.00 1.12 0.00 97 1008.1
20260903080054 38 305 1.0 7.0 0.00 1.12 0.00 97 1008.1
20260903075555 38 259 2.0 0.0 0.02 1.12 0.00 97 1008.2
20260903075053 38 302 1.0 9.0 0.02 1.12 0.00 97 1008.2
20260903074554 38 277 5.0 6.0 0.02 1.12 0.00 97 1008.1
20260903074055 38 304 5.0 4.0 0.02 1.12 0.00 97 1008.1
20260903073555 38 239 4.0 5.0 0.02 1.12 0.00 97 1008.1
20260903073056 38 8 2.0 0.0 0.02 1.12 0.00 97 1008.1
20260903072554 39 308 3.0 7.0 0.02 1.12 0.00 97 1008.0
20260903072055 39 263 0.0 4.0 0.02 1.12 0.00 97 1008.1
20260903071556 39 270 0.0 0.0 0.02 1.12 0.00 97 1008.0
20260903071057 39 269 0.0 2.0 0.02 1.12 0.00 97 1008.0
20260903070558 39 270 4.0 9.0 0.02 1.12 0.00 97 1008.0
20260903070056 39 323 3.0 0.0 0.02 1.12 0.00 97 1007.9
20260903065556 39 295 1.0 1.0 0.13 0.00 1.12 97 1008.1
20260903065057 38 302 4.0 7.0 0.13 0.00 1.12 97 1008.0
20260903064059 38 283 1.0 1.0 0.13 0.00 1.11 97 1008.0
20260903063557 38 262 2.0 1.0 0.13 0.00 1.11 97 1007.9
20260903063058 38 318 0.0 5.0 0.13 0.00 1.11 97 1008.0
20260903062559 38 267 5.0 0.0 0.13 0.00 1.11 97 1007.7
20260903062059 38 266 1.0 5.0 0.13 0.00 1.11 97 1007.9
20260903061600 38 285 4.0 6.0 0.13 0.00 1.10 97 1007.9
20260903061058 38 301 4.0 6.0 0.13 0.00 1.10 97 1007.9
20260903060559 38 270 3.0 4.0 0.13 0.00 1.10 97 1007.9
20260903060059 38 240 3.0 8.0 0.13 0.00 1.10 97 1007.9
20260903055600 39 277 3.0 3.0 0.05 0.00 1.10 97 1008.0
20260903055101 39 311 3.0 1.0 0.05 0.00 1.08 97 1008.0
20260903054559 39 226 0.0 0.0 0.05 0.00 1.06 97 1008.0
20260903054100 39 274 7.0 6.0 0.05 0.00 1.05 97 1008.1
20260903053601 40 305 2.0 1.0 0.05 0.00 1.03 97 1008.2
20260903053102 40 301 4.0 0.0 0.05 0.00 0.99 97 1008.1
20260903052602 40 326 4.0 1.0 0.05 0.00 0.98 97 1008.0
20260903052101 40 287 0.0 0.0 0.05 0.00 0.97 97 1008.0
20260903051601 40 294 2.0 0.0 0.05 0.00 0.97 97 1007.9
20260903051102 40 308 3.0 5.0 0.05 0.00 0.97 97 1007.7
20260903050603 40 325 2.0 1.0 0.05 0.00 0.97 97 1007.7
20260903050104 40 231 0.0 1.0 0.05 0.00 0.97 97 1007.7
20260903045602 40 291 1.0 0.0 0.14 0.00 0.97 97 1007.7
20260903045103 40 211 2.0 0.0 0.14 0.00 0.97 97 1007.7
20260903044604 40 283 3.0 4.0 0.14 0.00 0.97 97 1007.7
20260903044104 40 298 3.0 1.0 0.14 0.00 0.97 97 1007.6
20260903043605 40 300 3.0 1.0 0.14 0.00 0.97 97 1007.7
20260903043103 40 297 0.0 0.0 0.14 0.00 0.96 97 1007.6
20260903042604 40 316 3.0 0.0 0.14 0.00 0.96 97 1007.6
20260903042105 41 356 4.0 2.0 0.14 0.00 0.95 97 1007.9
20260903041605 41 305 5.0 8.0 0.14 0.00 0.92 97 1007.9
20260903041106 41 246 6.0 0.0 0.14 0.00 0.92 97 1007.6
20260903040604 41 290 4.0 6.0 0.14 0.00 0.92 97 1007.5
20260903040105 42 222 2.0 2.0 0.14 0.00 0.92 97 1007.4
20260903035606 42 304 4.0 3.0 0.08 0.00 0.92 97 1007.3
20260903035107 42 252 2.0 0.0 0.08 0.00 0.91 97 1007.3
20260903034608 42 304 2.0 6.0 0.08 0.00 0.90 97 1007.4
20260903034106 42 293 0.0 9.0 0.08 0.00 0.90 97 1007.3
20260903033606 42 221 2.0 2.0 0.08 0.00 0.89 97 1007.4
20260903033107 42 28 3.0 5.0 0.08 0.00 0.86 96 1007.2
20260903032608 42 304 2.0 5.0 0.08 0.00 0.84 96 1007.0
20260903032109 42 294 0.0 3.0 0.08 0.00 0.84 96 1006.9
20260903031607 42 293 5.0 7.0 0.08 0.00 0.83 96 1006.8
20260903031108 42 193 3.0 1.0 0.08 0.00 0.82 96 1006.8
20260903030609 42 191 3.0 0.0 0.08 0.00 0.80 96 1006.8
20260903030110 42 236 2.0 2.0 0.08 0.00 0.79 96 1006.8
20260903025611 42 302 1.0 5.0 0.03 0.00 0.77 96 1006.7
20260903025109 42 321 2.0 5.0 0.03 0.00 0.76 96 1006.7
20260903024610 42 233 4.0 0.0 0.03 0.00 0.75 96 1006.6
20260903024111 42 280 4.0 3.0 0.03 0.00 0.74 96 1006.7
20260903023612 42 290 7.0 5.0 0.03 0.00 0.74 96 1006.7
20260903023113 42 314 4.0 6.0 0.03 0.00 0.74 96 1006.7
20260903022611 42 263 6.0 5.0 0.03 0.00 0.74 96 1006.7
20260903022112 42 290 7.0 5.0 0.03 0.00 0.73 96 1006.7
20260903021613 42 291 1.0 0.0 0.03 0.00 0.72 96 1006.6
20260903021114 42 260 2.0 10.0 0.03 0.00 0.72 96 1006.6
20260903020615 42 255 3.0 0.0 0.03 0.00 0.71 96 1006.6
20260903020113 42 338 4.0 4.0 0.03 0.00 0.70 96 1006.7
20260903015614 42 226 3.0 1.0 0.05 0.00 0.70 96 1006.6
20260903015114 42 318 4.0 9.0 0.05 0.00 0.70 96 1006.7
20260903014615 42 236 5.0 0.0 0.05 0.00 0.69 96 1006.8
20260903014117 42 301 4.0 4.0 0.05 0.00 0.69 96 1006.8
20260903013615 42 305 3.0 2.0 0.05 0.00 0.69 96 1007.0
20260903013115 42 243 3.0 3.0 0.05 0.00 0.68 96 1006.9
20260903012616 42 294 0.0 8.0 0.05 0.00 0.68 96 1006.9
20260903012117 42 239 5.0 1.0 0.05 0.00 0.68 96 1006.8
20260903011618 42 315 2.0 3.0 0.05 0.00 0.68 96 1006.9
20260903011116 42 257 2.0 1.0 0.05 0.00 0.68 95 1006.9
20260903010617 42 229 3.0 6.0 0.05 0.00 0.67 95 1007.0
20260903010118 42 270 4.0 4.0 0.05 0.00 0.67 95 1006.9
20260903005619 42 276 5.0 1.0 0.11 0.00 0.67 95 1006.9
20260903005120 42 300 6.0 2.0 0.11 0.00 0.67 95 1007.0
20260903004618 42 219 3.0 1.0 0.11 0.00 0.67 95 1007.0
20260903004119 42 316 2.0 4.0 0.11 0.00 0.66 95 1007.0
20260903003621 42 238 1.0 2.0 0.11 0.00 0.66 96 1007.2
20260903003121 42 305 5.0 6.0 0.11 0.00 0.66 96 1007.3
20260903002623 42 307 5.0 2.0 0.11 0.00 0.66 95 1007.3
20260903002120 43 232 4.0 4.0 0.11 0.00 0.66 95 1007.5
20260903001621 43 307 7.0 4.0 0.11 0.00 0.65 95 1007.3
20260903001122 43 257 4.0 0.0 0.11 0.00 0.65 95 1007.4
20260903000623 43 248 4.0 4.0 0.11 0.00 0.64 95 1007.3
20260903000124 43 311 8.0 8.0 0.11 0.00 0.63 95 1007.3
20260902235622 43 280 5.0 1.0 0.14 0.00 0.62 95 1007.3
20260902235123 43 293 4.0 8.0 0.14 0.00 0.61 95 1007.2
20260902234624 43 257 9.0 2.0 0.14 0.00 0.60 95 1007.0
20260902234125 44 267 6.0 10.0 0.14 0.00 0.59 95 1007.0
20260902233626 44 198 6.0 0.0 0.14 0.00 0.58 95 1006.9
20260902233125 44 307 4.0 4.0 0.14 0.00 0.57 96 1007.2
20260902232626 44 278 8.0 9.0 0.14 0.00 0.56 95 1007.0
20260902232126 44 298 4.0 3.0 0.14 0.00 0.55 96 1006.8
20260902231627 45 270 7.0 4.0 0.14 0.00 0.54 96 1007.0
20260902231129 45 270 5.0 6.0 0.14 0.00 0.53 96 1006.9
20260902230629 45 271 4.0 4.0 0.14 0.00 0.52 96 1006.8
20260902230153 45 259 7.0 3.0 0.14 0.00 0.52 96 1006.9
20260902225129 45 174 7.0 3.0 0.11 0.00 0.50 96 1006.8
20260902224630 44 205 5.0 2.0 0.11 0.00 0.49 96 1006.7
20260902224128 45 224 3.0 5.0 0.11 0.00 0.48 96 1006.7
20260902223629 45 284 1.0 0.0 0.11 0.00 0.46 96 1006.8
20260902222631 45 301 2.0 2.0 0.11 0.00 0.42 96 1006.7
20260902222132 45 125 5.0 1.0 0.11 0.00 0.42 96 1006.4
20260902221630 45 238 5.0 3.0 0.11 0.00 0.40 96 1006.6
20260902220632 45 231 3.0 1.0 0.11 0.00 0.38 96 1006.4
20260902220133 45 274 4.0 2.0 0.11 0.00 0.38 95 1006.4
20260902215633 45 266 4.0 3.0 0.11 0.00 0.36 96 1006.7
20260902215132 45 256 1.0 2.0 0.11 0.00 0.34 95 1006.7
20260902214633 45 276 4.0 4.0 0.11 0.00 0.33 95 1006.6
20260902214134 45 221 1.0 1.0 0.11 0.00 0.32 96 1006.6
20260902213136 45 266 6.0 7.0 0.11 0.00 0.29 95 1006.7
20260902212645 45 291 1.0 0.0 0.11 0.00 0.28 95 1006.6
20260902212135 45 278 4.0 8.0 0.11 0.00 0.28 95 1006.4
20260902210638 45 270 3.0 16.0 0.11 0.00 0.26 95 1006.3
20260902210136 44 205 2.0 6.0 0.11 0.00 0.26 95 1006.3